Zurück zum Katalog

ATLAS 5 CENTAUR DEB

AktivHEO
NORAD 44015·DEBRIS·🇺🇸 United States

Gestartet Sep 17, 2014 von Cape Canaveral Space Force Station

Loading…

Nächste Überflüge (nächste 24 Stunden)

TLE

AktuellSource: Space-Track

Epoche: Sep 13, 2026, 09:07 UTC

1 44015U 14055BW  26256.38028174 -.00000392  00000-0  00000+0 0  9997
2 44015  21.3008  76.2998 5089714 286.7357  24.9570  1.95143567 56282

Verfolge ATLAS 5 CENTAUR DEB in Echtzeit mit AllMySat

Download on the App Store